When you browse on this site, cookies collect data to enhance your experience and personalize the content and advertising you see.
Visit our Privacy Policy to learn more. By continuing to use the site, you agree to this use of cookies and data.
  • In Austria
  • List of Countries
  • For 7 days
  • Water Temperature
  • Weather Map
  • News
  • Weather Widgets
  • user-avatar
    Login

    Hourly Weather Trujillo

    Today, 27 May, Wednesday

    Time Temperature Precipitation Wind Pressure Humidity
    00:00 +27°C° 0 mm 2 mps 758 mmHg 86%
    01:00 +27°C° 0 mm 2 mps 758 mmHg 85%
    02:00 +27°C° 0 mm 1 mps 758 mmHg 85%
    03:00 +27°C° 0 mm 1 mps 757 mmHg 84%
    04:00 +27°C° 0 mm 1 mps 757 mmHg 82%
    05:00 +27°C° 0 mm 1 mps 758 mmHg 80%
    06:00 +28°C° 0 mm 1 mps 758 mmHg 78%
    07:00 +31°C° 0 mm 1 mps 758 mmHg 67%
    08:00 +34°C° 0 mm 1 mps 758 mmHg 55%
    09:00 +39°C° 0 mm 1 mps 759 mmHg 44%
    10:00 +39°C° 0 mm 1 mps 758 mmHg 42%
    11:00 +40°C° 0 mm 2 mps 758 mmHg 41%
    12:00 +40°C° 0 mm 3 mps 758 mmHg 39%
    13:00 +39°C° 0 mm 3 mps 757 mmHg 43%
    14:00 +40°C° 0 mm 4 mps 757 mmHg 48%
    15:00 +38°C° 0 mm 4 mps 756 mmHg 52%
    16:00 +36°C° 0 mm 5 mps 756 mmHg 60%
    17:00 +34°C° 0 mm 5 mps 757 mmHg 68%
    18:00 +32°C° 0 mm 6 mps 757 mmHg 75%
    19:00 +32°C° 0.1 mm 6 mps 758 mmHg 80%
    20:00 +30°C° 0.1 mm 6 mps 758 mmHg 85%
    21:00 +29°C° 0.1 mm 6 mps 759 mmHg 89%
    22:00 +29°C° 0.1 mm 6 mps 759 mmHg 90%
    23:00 +28°C° 0.1 mm 5 mps 759 mmHg 91%

    Tomorrow, 28 May, Thursday

    Time Temperature Precipitation Wind Pressure Humidity
    00:00 +28°C° 0.1 mm 5 mps 759 mmHg 91%
    01:00 +28°C° 0 mm 5 mps 758 mmHg 92%
    02:00 +28°C° 0 mm 4 mps 758 mmHg 92%
    03:00 +27°C° 0 mm 4 mps 758 mmHg 92%
    04:00 +28°C° 0 mm 4 mps 758 mmHg 90%
    05:00 +28°C° 0 mm 4 mps 758 mmHg 89%
    06:00 +28°C° 0 mm 3 mps 759 mmHg 87%
    07:00 +31°C° 0 mm 3 mps 759 mmHg 75%
    08:00 +34°C° 0 mm 3 mps 759 mmHg 63%
    09:00 +37°C° 0 mm 3 mps 760 mmHg 51%
    10:00 +38°C° 0 mm 4 mps 759 mmHg 48%
    11:00 +40°C° 0 mm 5 mps 759 mmHg 45%
    12:00 +40°C° 0 mm 7 mps 758 mmHg 43%
    13:00 +39°C° 0.7 mm 7 mps 758 mmHg 52%
    14:00 +36°C° 0.7 mm 7 mps 758 mmHg 62%
    15:00 +34°C° 0.7 mm 7 mps 757 mmHg 71%
    16:00 +33°C° 0.2 mm 7 mps 758 mmHg 76%
    17:00 +32°C° 0.2 mm 6 mps 758 mmHg 81%
    18:00 +29°C° 0.2 mm 6 mps 758 mmHg 86%
    19:00 +29°C° 0 mm 6 mps 759 mmHg 87%
    20:00 +28°C° 0 mm 5 mps 759 mmHg 89%
    21:00 +28°C° 0 mm 5 mps 759 mmHg 90%
    22:00 +28°C° 0 mm 5 mps 759 mmHg 91%
    23:00 +27°C° 0 mm 4 mps 759 mmHg 93%

    Day after tomorrow, 29 May, Friday

    Time Temperature Precipitation Wind Pressure Humidity
    00:00 +27°C° 0 mm 4 mps 759 mmHg 94%
    01:00 +27°C° 0 mm 3 mps 759 mmHg 94%
    02:00 +27°C° 0 mm 3 mps 758 mmHg 94%
    03:00 +26°C° 0 mm 3 mps 758 mmHg 94%
    04:00 +27°C° 0 mm 2 mps 758 mmHg 93%
    05:00 +27°C° 0 mm 2 mps 759 mmHg 91%
    06:00 +27°C° 0 mm 2 mps 759 mmHg 89%
    07:00 +29°C° 0 mm 2 mps 759 mmHg 78%
    08:00 +32°C° 0 mm 1 mps 759 mmHg 67%
    09:00 +34°C° 0 mm 1 mps 759 mmHg 56%
    10:00 +36°C° 0 mm 2 mps 759 mmHg 50%
    11:00 +38°C° 0 mm 3 mps 758 mmHg 43%
    12:00 +40°C° 0 mm 5 mps 758 mmHg 37%
    13:00 +39°C° 0.1 mm 5 mps 757 mmHg 46%
    14:00 +36°C° 0.1 mm 5 mps 757 mmHg 56%
    15:00 +34°C° 0.1 mm 5 mps 756 mmHg 66%
    16:00 +33°C° 0.9 mm 5 mps 757 mmHg 74%
    17:00 +30°C° 0.9 mm 5 mps 757 mmHg 83%
    18:00 +28°C° 0.9 mm 5 mps 757 mmHg 92%
    19:00 +28°C° 0.8 mm 5 mps 758 mmHg 93%
    20:00 +28°C° 0.8 mm 5 mps 758 mmHg 94%
    21:00 +27°C° 0.8 mm 5 mps 759 mmHg 96%
    22:00 +27°C° 0.1 mm 5 mps 759 mmHg 97%
    23:00 +27°C° 0.1 mm 4 mps 758 mmHg 97%

    30 May, Saturday

    Time Temperature Precipitation Wind Pressure Humidity
    00:00 +26°C° 0.1 mm 4 mps 758 mmHg 98%
    01:00 +26°C° 0 mm 4 mps 758 mmHg 98%
    02:00 +26°C° 0 mm 3 mps 758 mmHg 97%
    03:00 +26°C° 0 mm 3 mps 757 mmHg 97%
    04:00 +26°C° 0 mm 3 mps 757 mmHg 96%
    05:00 +26°C° 0 mm 3 mps 758 mmHg 95%
    06:00 +26°C° 0 mm 3 mps 758 mmHg 94%
    07:00 +29°C° 0 mm 3 mps 758 mmHg 80%
    08:00 +33°C° 0 mm 3 mps 758 mmHg 67%
    09:00 +35°C° 0 mm 3 mps 758 mmHg 53%
    10:00 +35°C° 0.1 mm 4 mps 758 mmHg 52%
    11:00 +35°C° 0.1 mm 5 mps 758 mmHg 51%
    12:00 +35°C° 0.1 mm 5 mps 757 mmHg 50%
    13:00 +34°C° 0.2 mm 5 mps 757 mmHg 58%
    14:00 +32°C° 0.2 mm 5 mps 757 mmHg 67%
    15:00 +30°C° 0.2 mm 5 mps 756 mmHg 76%
    16:00 +29°C° 0.1 mm 5 mps 756 mmHg 77%
    17:00 +29°C° 0.1 mm 4 mps 757 mmHg 79%
    18:00 +28°C° 0.1 mm 3 mps 757 mmHg 80%
    19:00 +28°C° 0 mm 3 mps 757 mmHg 80%
    20:00 +28°C° 0 mm 3 mps 758 mmHg 79%
    21:00 +28°C° 0 mm 2 mps 758 mmHg 79%
    22:00 +28°C° 0.1 mm 2 mps 758 mmHg 79%
    23:00 +27°C° 0.1 mm 2 mps 758 mmHg 80%

    31 May, Sunday

    Time Temperature Precipitation Wind Pressure Humidity
    00:00 +27°C° 0.1 mm 2 mps 758 mmHg 81%
    01:00 +27°C° 0.2 mm 2 mps 758 mmHg 84%
    02:00 +26°C° 0.2 mm 1 mps 757 mmHg 88%
    03:00 +25°C° 0.2 mm 1 mps 757 mmHg 92%
    04:00 +25°C° 0.1 mm 1 mps 757 mmHg 92%
    05:00 +25°C° 0.1 mm 2 mps 757 mmHg 92%
    06:00 +25°C° 0.1 mm 2 mps 757 mmHg 92%
    07:00 +26°C° 0.1 mm 2 mps 758 mmHg 91%
    08:00 +26°C° 0.1 mm 1 mps 758 mmHg 89%
    09:00 +27°C° 0.1 mm 1 mps 759 mmHg 88%
    10:00 +28°C° 0.1 mm 1 mps 758 mmHg 80%
    11:00 +30°C° 0.1 mm 2 mps 758 mmHg 71%
    12:00 +32°C° 0.1 mm 2 mps 757 mmHg 63%
    13:00 +32°C° 0 mm 2 mps 757 mmHg 63%
    14:00 +32°C° 0 mm 2 mps 756 mmHg 63%
    15:00 +33°C° 0 mm 3 mps 756 mmHg 63%
    16:00 +30°C° 0.1 mm 3 mps 756 mmHg 72%
    17:00 +29°C° 0.1 mm 3 mps 756 mmHg 81%
    18:00 +27°C° 0.1 mm 3 mps 756 mmHg 90%
    19:00 +27°C° 0 mm 3 mps 757 mmHg 90%
    20:00 +27°C° 0 mm 3 mps 757 mmHg 89%
    21:00 +27°C° 0 mm 3 mps 758 mmHg 89%
    22:00 +27°C° 0.4 mm 2 mps 758 mmHg 90%
    23:00 +26°C° 0.4 mm 2 mps 758 mmHg 92%

    1 June, Monday

    Time Temperature Precipitation Wind Pressure Humidity
    00:00 +26°C° 0.4 mm 2 mps 758 mmHg 94%
    01:00 +26°C° 0.3 mm 2 mps 758 mmHg 94%
    02:00 +26°C° 0.3 mm 1 mps 757 mmHg 94%
    03:00 +26°C° 0.3 mm 1 mps 757 mmHg 95%
    04:00 +26°C° 0.1 mm 1 mps 757 mmHg 95%
    05:00 +26°C° 0.1 mm 1 mps 757 mmHg 94%
    06:00 +26°C° 0.1 mm 1 mps 757 mmHg 94%
    07:00 +26°C° 0.1 mm 1 mps 758 mmHg 93%
    08:00 +27°C° 0.1 mm 1 mps 758 mmHg 91%
    09:00 +27°C° 0.1 mm 1 mps 758 mmHg 90%
    10:00 +29°C° 0 mm 1 mps 758 mmHg 83%
    11:00 +30°C° 0 mm 2 mps 758 mmHg 77%
    12:00 +31°C° 0 mm 3 mps 757 mmHg 70%
    13:00 +30°C° 0.2 mm 2 mps 757 mmHg 78%
    14:00 +29°C° 0.2 mm 2 mps 756 mmHg 85%
    15:00 +28°C° 0.2 mm 2 mps 756 mmHg 93%
    16:00 +27°C° 1.5 mm 2 mps 756 mmHg 95%
    17:00 +27°C° 1.5 mm 2 mps 757 mmHg 97%
    18:00 +26°C° 1.5 mm 2 mps 757 mmHg 98%
    19:00 +26°C° 1.4 mm 2 mps 757 mmHg 98%
    20:00 +26°C° 1.4 mm 2 mps 758 mmHg 98%
    21:00 +26°C° 1.4 mm 3 mps 758 mmHg 98%
    22:00 +26°C° 0.7 mm 3 mps 758 mmHg 98%
    23:00 +26°C° 0.7 mm 3 mps 758 mmHg 98%
    Show more